TimeCDT,TemperatureF,Dew PointF,Humidity,Sea Level PressureIn,VisibilityMPH,Wind Direction,Wind SpeedMPH,Gust SpeedMPH,PrecipitationIn,Events,Conditions,WindDirDegrees,DateUTC
12:56 AM,66.9,63.0,87,29.85,10.0,North,6.9,-,N/A,,Clear,350,2012-10-27 05:56:00
1:56 AM,66.9,63.0,87,29.84,10.0,NNW,10.4,16.1,N/A,,Clear,340,2012-10-27 06:56:00
2:38 AM,64.4,62.6,94,29.88,8.0,NNW,8.1,-,N/A,,Partly Cloudy,330,2012-10-27 07:38:00
2:56 AM,64.0,61.0,90,29.83,10.0,NNW,9.2,16.1,N/A,,Mostly Cloudy,330,2012-10-27 07:56:00
3:56 AM,61.0,57.9,90,29.85,10.0,NW,15.0,21.9,N/A,,Overcast,320,2012-10-27 08:56:00
4:56 AM,59.0,55.9,90,29.86,9.0,NNW,13.8,23.0,N/A,,Overcast,340,2012-10-27 09:56:00
5:56 AM,57.0,54.0,89,29.87,9.0,NNW,10.4,19.6,N/A,,Overcast,340,2012-10-27 10:56:00
6:56 AM,55.9,53.1,90,29.88,8.0,NNW,9.2,-,N/A,,Overcast,340,2012-10-27 11:56:00
7:56 AM,55.0,53.1,93,29.90,7.0,NNW,9.2,20.7,N/A,,Overcast,340,2012-10-27 12:56:00
8:56 AM,55.0,52.0,89,29.91,7.0,North,9.2,18.4,N/A,,Overcast,350,2012-10-27 13:56:00
9:56 AM,55.9,51.1,84,29.91,8.0,North,10.4,20.7,N/A,,Overcast,350,2012-10-27 14:56:00
10:56 AM,57.9,51.1,78,29.90,9.0,North,9.2,16.1,N/A,,Overcast,360,2012-10-27 15:56:00
11:56 AM,60.1,51.1,72,29.88,10.0,North,11.5,19.6,N/A,,Overcast,350,2012-10-27 16:56:00
12:37 PM,60.8,51.8,72,29.91,10.0,NNW,11.5,20.7,N/A,,Overcast,330,2012-10-27 17:37:00
12:56 PM,60.1,51.1,72,29.86,10.0,NNW,11.5,19.6,N/A,,Overcast,340,2012-10-27 17:56:00
1:56 PM,60.1,51.1,72,29.85,10.0,North,13.8,23.0,N/A,,Overcast,360,2012-10-27 18:56:00
2:56 PM,59.0,50.0,72,29.84,10.0,North,13.8,21.9,N/A,,Overcast,350,2012-10-27 19:56:00
3:56 PM,57.9,50.0,75,29.83,9.0,NW,12.7,24.2,N/A,,Overcast,320,2012-10-27 20:56:00
4:56 PM,55.9,48.9,77,29.84,9.0,NW,13.8,21.9,N/A,,Overcast,320,2012-10-27 21:56:00
5:31 PM,53.6,48.2,82,29.88,9.0,NNW,13.8,21.9,N/A,,Overcast,330,2012-10-27 22:31:00
5:56 PM,54.0,48.9,83,29.85,9.0,NNW,16.1,25.3,N/A,,Overcast,330,2012-10-27 22:56:00
6:56 PM,54.0,48.0,80,29.87,10.0,NNW,10.4,19.6,N/A,,Overcast,340,2012-10-27 23:56:00
7:46 PM,53.6,48.2,82,29.92,10.0,NNW,11.5,17.3,N/A,,Overcast,340,2012-10-28 00:46:00
7:56 PM,54.0,48.0,80,29.89,10.0,NNW,11.5,18.4,N/A,,Overcast,340,2012-10-28 00:56:00
8:56 PM,53.1,48.0,83,29.89,10.0,NNW,10.4,16.1,N/A,,Overcast,340,2012-10-28 01:56:00
9:56 PM,53.1,48.0,83,29.89,10.0,NNW,10.4,-,N/A,,Overcast,330,2012-10-28 02:56:00
10:56 PM,53.1,48.0,83,29.88,10.0,NNW,5.8,-,N/A,,Overcast,340,2012-10-28 03:56:00
11:56 PM,53.1,48.0,83,29.87,10.0,NNW,8.1,-,N/A,,Overcast,340,2012-10-28 04:56:00